Wind_Speed
19 21 23 24 25 27 30 31 32 33 34 34 34 34 34 34 33 33 33 33 34 34 35 35 36 36 37 38 38 39 39 40 41 41 42 43 43 44 43 44 44 44 44 44 45 45 45 46 47 48 48 48 48 49 50 51 52 53 54 55 55 55 56 56 57 55 53 53 54 54 56 58 59 59 59 58 57 56 55 53 52 51 50 50 49
22 23 24 24 24 26 27 28 30 31 33 33 34 33 33 33 33 33 33 33 33 34 35 35 36 36 37 38 39 40 41 42 42 43 44 44 45 46 46 46 46 46 46 47 47 47 46 47 48 49 49 50 50 51 51 52 53 53 54 55 56 56 57 58 59 58 55 54 55 55 57 59 59 58 58 58 57 57 56 54 53 52 51 51 50
25 25 26 26 26 27 27 27 28 28 29 29 30 31 31 31 31 31 31 32 33 34 35 36 36 37 38 39 40 41 42 43 44 45 46 46 47 47 48 48 48 48 48 48 49 49 49 48 49 49 50 51 52 53 53 54 54 55 55 56 56 57 58 59 60 60 58 55 56 57 58 59 60 59 58 58 57 56 55 54 53 53 52 51 51
26 26 26 27 28 28 29 29 30 30 30 31 31 32 32 32 31 31 32 33 34 36 37 37 38 39 40 40 41 42 43 44 45 46 47 47 48 49 50 50 51 50 50 50 51 51 51 51 51 51 51 52 53 54 55 56 56 56 57 57 58 57 58 59 60 61 60 57 56 57 58 59 60 60 59 58 57 55 54 53 53 53 52 52 52
28 27 27 29 31 32 32 33 33 34 34 35 35 34 34 33 33 33 34 35 37 38 39 39 40 41 41 41 42 42 43 44 45 46 47 48 49 50 51 52 52 52 52 52 53 53 53 53 53 53 53 52 53 54 56 57 58 58 58 58 59 59 59 60 60 61 61 59 57 57 58 59 60 60 59 58 57 56 54 53 52 52 52 52 52
28 29 31 33 33 33 33 34 35 37 39 39 38 37 36 35 35 36 36 37 38 39 39 40 40 41 40 41 41 41 42 43 43 44 45 47 48 49 51 52 54 54 54 54 54 55 55 55 55 55 55 55 54 55 56 57 59 60 60 60 60 60 60 60 61 61 61 60 58 57 58 59 60 60 59 58 57 57 56 53 52 51 51 51 51
35 34 35 35 34 34 35 37 39 41 43 43 42 40 40 39 38 38 37 38 40 40 40 40 40 40 39 39 39 39 40 40 41 42 43 45 46 48 49 51 53 55 56 56 56 57 57 57 57 56 57 57 56 56 56 57 59 60 61 62 62 62 61 61 62 62 61 61 59 58 57 58 60 60 59 59 58 58 57 53 49 48 48 49 49
43 41 40 38 37 38 40 41 42 44 45 45 45 43 43 42 40 39 39 39 40 40 40 40 40 39 38 37 37 37 38 38 39 41 43 44 46 47 48 50 51 53 55 56 58 58 59 59 59 58 58 58 58 58 57 58 59 60 62 63 63 63 63 63 63 62 62 62 61 59 57 57 59 59 59 59 59 58 57 54 49 46 47 49 49
48 47 46 43 43 44 44 45 46 47 46 46 47 46 45 44 42 42 41 41 41 41 40 40 39 38 37 37 37 37 37 38 39 41 43 44 46 47 48 50 51 52 53 54 56 58 59 60 60 60 60 60 59 59 58 59 59 60 61 63 64 64 64 64 63 63 63 62 61 59 58 57 57 58 59 59 58 57 56 54 52 48 47 49 49
53 53 51 48 46 47 48 48 48 50 49 48 49 49 47 46 46 45 44 44 43 41 41 40 39 38 38 37 37 38 38 39 41 43 45 47 48 49 50 50 51 52 53 54 55 56 57 59 59 60 60 61 61 61 60 60 60 60 61 62 64 64 65 65 64 64 64 63 62 60 58 57 56 57 58 58 58 58 57 56 54 51 49 49 48
56 56 54 52 51 50 49 49 48 50 53 52 53 53 51 50 49 48 47 45 44 42 41 40 39 38 38 38 38 39 39 40 43 45 47 49 50 51 52 53 53 54 54 55 55 55 56 57 58 59 59 60 60 61 62 61 61 61 61 61 63 64 65 65 65 65 65 64 63 61 60 58 56 56 57 57 57 58 57 56 55 52 49 49 48
57 55 51 50 51 50 50 51 50 52 56 58 58 57 55 53 52 49 47 45 43 42 41 40 40 40 39 39 39 40 40 42 44 47 49 51 52 53 53 54 55 56 56 56 56 57 57 57 58 58 58 58 59 60 61 61 62 62 62 62 62 63 65 66 66 65 65 65 64 63 61 59 57 56 55 55 56 56 56 56 56 53 51 50 49
59 57 54 52 53 53 52 51 52 54 57 60 60 59 56 54 52 49 46 44 42 42 42 41 41 41 41 41 40 40 41 43 45 48 50 51 53 54 55 56 57 58 58 58 58 58 58 58 58 59 59 59 59 59 60 60 61 62 63 63 63 63 64 65 66 66 66 66 65 63 62 61 58 56 55 55 55 56 57 57 56 55 54 53 52
61 61 60 58 57 55 53 52 53 56 57 57 57 57 54 52 50 47 44 42 41 42 42 42 43 43 43 42 41 41 43 45 47 49 51 52 54 55 57 59 60 60 60 59 59 59 59 59 59 59 59 60 60 60 61 61 61 61 62 63 63 63 64 64 65 66 66 66 66 64 63 62 61 58 56 56 56 56 56 56 57 57 56 54 53
65 64 63 61 59 56 53 52 54 56 56 56 57 56 53 49 46 44 41 40 40 41 43 44 45 45 44 44 43 44 45 47 50 51 53 54 56 57 59 61 62 63 62 61 60 60 60 60 59 59 59 60 60 61 61 62 62 62 62 62 62 63 64 64 65 66 66 66 67 65 63 62 62 60 58 58 57 56 55 55 57 58 57 54 53
68 67 66 65 63 60 56 53 53 54 56 58 59 57 51 45 41 38 37 37 40 43 45 46 46 46 46 46 46 47 48 50 52 53 55 57 60 61 63 63 64 64 63 62 61 61 61 61 61 60 60 60 60 61 62 63 63 64 63 63 63 63 63 64 65 66 66 66 66 65 63 62 63 62 60 59 58 57 56 56 56 56 56 55 54
66 67 67 66 65 63 59 55 53 56 59 61 59 55 48 41 37 35 36 39 42 45 46 46 46 46 46 47 47 48 50 53 54 56 58 61 64 66 66 66 64 63 62 61 61 62 62 62 62 62 61 60 60 60 62 64 64 64 64 64 64 64 63 64 66 66 66 66 66 65 64 63 63 63 62 61 60 59 59 57 55 54 54 54 53
62 62 62 63 64 63 59 55 53 55 57 57 55 50 44 38 35 35 37 39 41 43 44 45 45 46 47 48 49 50 52 54 56 59 61 64 67 67 67 65 63 61 60 59 59 59 59 59 59 59 59 59 59 59 61 63 65 65 65 65 65 64 64 65 66 65 66 66 65 65 65 65 64 64 63 62 61 61 61 58 55 53 52 52 51
62 62 60 60 61 61 58 57 55 55 56 56 50 44 40 37 36 38 38 38 40 41 43 44 46 47 48 49 51 52 54 56 59 62 64 66 66 65 63 61 59 58 57 55 54 53 53 54 54 55 56 57 57 58 60 62 64 65 66 66 65 64 64 66 66 66 67 67 66 65 65 65 65 64 63 63 63 62 61 58 56 54 52 50 50
57 59 58 55 56 58 58 57 55 55 57 55 48 42 40 40 42 43 41 41 41 42 44 45 46 47 49 50 52 54 56 58 61 64 65 64 63 61 60 58 57 55 53 51 50 50 51 53 54 55 57 58 59 60 61 62 63 63 64 64 64 63 64 65 66 67 68 68 67 67 65 64 64 64 63 63 63 63 61 58 56 54 52 50 49
48 50 51 50 50 52 54 53 53 56 56 53 50 49 48 47 46 43 42 42 43 44 45 45 46 47 49 51 53 56 59 61 63 63 63 62 60 59 58 56 54 53 51 50 51 51 53 54 55 56 58 59 60 60 61 61 62 62 61 61 61 62 63 64 66 68 69 69 69 68 66 64 63 63 63 63 62 62 61 58 55 54 52 50 49
41 43 45 45 45 47 50 50 52 56 57 54 53 53 52 48 45 44 43 44 44 44 44 45 46 48 50 53 55 58 60 62 62 61 60 59 58 56 55 54 54 53 53 52 53 54 54 54 54 54 55 56 57 57 58 59 59 59 58 58 58 58 60 61 63 66 69 69 69 69 68 65 62 62 62 62 62 61 60 57 55 53 52 50 50
38 39 41 41 41 44 48 49 49 51 53 54 54 52 49 47 45 44 44 43 42 43 43 45 46 49 51 54 57 58 59 59 59 58 57 55 55 54 55 56 57 57 56 55 53 52 50 50 50 51 52 54 56 57 58 58 58 57 56 55 55 56 57 58 60 63 66 68 69 69 68 65 62 60 60 60 61 61 59 58 55 53 52 52 52
34 36 38 40 42 44 46 46 46 47 48 49 48 46 45 44 43 42 41 40 41 42 44 46 48 51 53 55 56 56 57 56 56 55 54 54 54 56 58 59 60 60 58 54 50 47 47 47 49 51 54 56 58 59 60 59 58 57 56 54 54 54 54 56 58 60 62 64 66 67 67 65 62 59 58 59 60 60 59 58 56 54 53 53 54
33 37 39 41 43 42 42 43 43 42 40 39 39 40 40 40 39 38 38 38 40 42 45 47 49 51 53 53 53 53 53 52 52 52 54 56 57 59 60 60 59 57 54 50 48 47 48 48 49 51 53 55 56 56 56 56 56 56 55 54 53 52 52 53 55 58 59 60 62 64 64 64 62 60 58 59 60 61 59 58 56 55 54 54 54
35 38 36 33 33 34 35 37 38 36 34 34 34 35 34 33 33 34 36 38 41 43 45 48 49 50 51 51 50 49 49 49 51 53 56 57 58 58 58 56 55 53 51 50 50 49 47 46 45 45 45 45 46 46 47 47 48 49 49 50 50 50 51 52 53 55 56 57 59 61 62 62 61 60 59 59 60 59 58 57 55 54 54 53 52
39 36 29 25 26 28 29 30 30 29 28 28 27 27 28 29 31 33 36 39 41 43 46 47 48 48 48 47 46 46 47 49 52 54 55 56 55 53 52 52 51 51 51 50 48 45 42 40 39 38 37 37 37 38 39 40 42 43 44 45 47 48 49 50 51 52 54 54 56 58 60 61 60 60 59 58 58 57 56 55 54 52 52 52 52
33 30 26 24 24 24 23 22 22 21 21 21 22 24 26 28 31 33 36 39 42 44 45 45 44 44 43 43 43 44 47 50 52 52 52 50 49 48 48 49 50 50 49 46 41 38 36 36 36 36 36 36 35 36 37 38 39 40 41 43 44 47 49 50 50 49 50 51 52 54 57 59 59 58 58 57 56 55 55 54 52 51 51 51 51
23 24 23 21 19 18 17 16 15 15 16 19 21 23 25 28 31 35 37 40 41 41 41 40 40 40 40 42 43 45 48 49 49 48 46 45 45 45 45 46 46 45 42 38 33 32 32 33 33 34 35 35 35 35 36 37 38 39 39 40 41 43 45 48 48 48 48 49 49 50 54 56 57 56 57 56 55 54 54 53 51 50 49 50 50
21 20 18 16 15 14 13 12 12 13 16 19 21 23 26 29 32 34 36 37 38 37 37 37 37 38 40 42 44 47 48 47 45 42 41 40 41 42 41 40 38 35 33 31 29 29 30 32 32 33 33 34 34 35 36 37 37 37 37 38 38 38 40 42 43 44 45 45 45 47 50 53 54 54 55 54 53 53 53 52 50 48 47 48 48
18 16 14 12 11 11 10 10 11 14 18 20 22 25 27 29 30 31 32 33 33 33 34 35 36 38 40 42 44 45 45 43 41 39 37 37 38 37 36 33 31 29 29 29 29 30 31 31 32 32 31 31 33 34 36 36 36 35 34 33 33 33 34 35 36 38 39 40 40 42 46 49 50 50 51 51 51 51 51 49 48 47 46 47 47
14 12 11 11 10 10 9 10 12 16 19 22 23 25 26 26 27 28 29 30 30 31 33 34 37 39 41 43 44 43 41 38 36 35 34 34 34 33 29 27 26 27 28 29 30 31 31 30 30 29 28 28 29 32 33 33 33 30 28 27 27 28 30 32 33 34 35 35 36 38 41 45 46 46 47 49 50 49 47 46 45 44 44 45 47
12 11 11 10 10 9 9 11 14 17 20 22 23 23 23 24 25 27 27 28 29 30 32 34 37 39 41 43 43 42 39 36 33 33 32 31 29 27 25 23 24 26 27 29 30 30 30 29 29 28 27 27 27 28 29 28 26 23 23 23 25 26 27 29 30 31 31 32 34 37 38 39 40 41 44 47 47 46 44 44 44 43 43 45 46
10 10 9 9 8 8 10 12 15 17 19 20 20 21 22 23 24 25 25 27 28 30 33 35 37 39 42 43 42 41 38 34 32 31 30 28 25 23 23 23 24 24 25 25 27 28 28 28 28 27 25 23 22 23 23 21 19 19 20 21 22 23 24 26 27 29 29 30 34 36 37 37 38 39 41 43 42 42 42 42 42 42 43 45 45
8 8 8 8 8 9 11 13 15 16 17 18 19 20 21 21 22 23 24 27 29 31 33 36 38 40 41 42 41 39 35 32 31 30 28 25 22 20 22 23 23 22 21 20 20 22 24 26 26 23 18 14 14 16 16 16 17 16 16 16 16 18 20 23 25 26 27 29 33 36 38 38 38 39 39 39 39 38 38 39 40 42 43 43 43
8 9 9 8 9 10 12 13 14 15 16 17 18 19 20 21 22 23 25 27 29 31 33 35 37 39 40 40 39 37 35 32 30 28 25 22 19 18 19 20 19 19 18 17 17 18 21 23 22 18 12 8 6 9 11 15 16 14 12 11 12 13 16 20 23 24 25 27 30 33 35 36 36 36 37 38 38 37 36 38 41 42 42 41 40
9 9 8 9 10 10 11 11 12 14 16 17 18 20 21 22 22 24 25 27 29 30 31 33 35 37 39 39 38 36 33 31 30 27 22 18 15 15 15 16 17 18 17 16 16 16 18 18 15 11 8 6 3 7 11 15 16 13 10 8 8 9 12 16 20 21 22 24 27 30 32 33 34 36 37 38 38 38 39 40 41 41 39 38 36
9 8 8 9 9 8 8 9 11 13 15 17 19 21 22 22 23 24 25 26 27 28 29 31 33 35 37 37 35 32 30 29 30 28 22 17 15 15 15 15 16 16 14 12 11 12 12 11 8 6 5 5 3 4 8 13 17 15 11 8 7 6 7 11 16 19 20 22 25 29 32 33 34 36 36 35 36 37 39 40 40 39 37 35 33
7 8 8 8 7 6 7 9 11 13 16 18 19 21 21 22 23 23 24 24 24 26 28 30 32 34 36 35 33 30 27 27 27 26 20 16 15 15 15 15 15 12 9 7 7 7 7 7 7 7 6 5 4 3 4 9 16 15 11 9 8 5 4 8 13 17 20 22 24 27 30 32 33 33 33 32 34 36 38 38 38 37 34 32 31
7 7 7 6 6 6 7 9 11 14 16 17 18 20 21 22 22 23 22 23 23 25 27 30 32 34 35 34 31 27 25 25 26 24 19 14 14 15 15 15 14 10 7 6 7 7 6 5 8 9 8 6 7 6 4 5 10 14 11 9 8 5 4 7 13 18 20 22 25 27 29 31 32 33 33 34 36 36 35 35 35 34 32 30 30
6 6 5 6 6 6 7 10 12 14 16 17 17 19 20 21 22 22 22 23 23 25 27 29 32 33 35 34 30 27 25 25 26 24 20 16 14 13 14 15 12 8 7 6 8 9 8 7 8 10 9 7 7 8 7 5 6 11 12 10 7 6 5 8 15 20 22 23 27 29 31 33 34 34 35 36 37 35 33 33 33 31 30 29 29
6 6 6 6 5 6 8 10 12 14 15 16 17 18 19 20 21 22 22 23 23 24 26 28 30 32 34 33 30 27 26 26 26 26 24 20 15 12 12 12 8 6 8 9 7 8 9 10 10 10 10 9 7 8 9 7 6 8 12 12 10 8 7 10 16 21 23 25 28 31 34 36 37 37 37 37 37 35 33 33 32 31 30 30 29
6 6 6 5 4 6 7 10 12 14 15 15 16 17 18 19 21 21 22 22 23 24 25 27 29 31 33 32 30 28 26 26 26 26 26 23 16 10 9 9 7 6 10 10 6 5 7 10 12 12 12 12 9 8 9 9 6 7 11 14 14 11 10 11 15 20 22 24 26 30 33 35 36 36 35 35 35 34 33 32 32 31 30 28 26
7 6 5 4 5 6 8 10 11 13 14 14 15 16 17 19 20 21 22 23 24 24 25 26 27 29 30 32 31 28 26 25 25 25 25 23 17 11 9 8 7 6 9 11 6 4 4 5 10 14 15 15 13 11 10 9 8 8 11 15 16 15 15 16 18 20 21 21 23 26 28 30 32 32 31 32 33 33 32 32 31 29 27 25 24
7 6 5 5 6 7 8 10 11 13 14 14 14 15 16 17 19 21 22 23 24 24 25 25 26 27 28 30 31 29 26 24 24 24 24 24 19 14 10 9 8 6 6 9 9 7 4 1 3 9 14 15 13 11 10 11 12 12 13 16 18 18 19 20 22 23 24 24 24 25 26 28 30 31 32 32 33 32 31 30 29 27 26 25 24
8 6 6 6 7 8 9 11 12 13 14 14 14 14 15 16 17 19 20 22 23 24 24 25 25 26 27 29 30 29 27 24 23 23 23 23 21 17 13 10 9 7 5 6 10 10 6 2 3 6 10 9 5 4 7 12 16 17 17 17 19 21 22 23 24 25 26 28 28 29 29 30 32 32 30 30 31 30 29 28 27 26 25 24 24
8 7 6 7 7 9 10 11 12 14 15 15 15 15 15 16 16 17 18 19 21 23 24 25 25 25 26 27 29 30 28 25 23 22 22 21 20 19 17 12 9 9 8 7 8 9 7 2 4 8 11 11 7 2 5 11 16 17 17 17 18 20 23 24 25 27 28 29 30 31 31 31 31 30 29 29 29 29 28 27 26 26 25 24 23
8 7 7 7 8 9 11 12 14 15 16 16 16 16 16 17 17 17 17 18 19 21 23 24 25 25 25 26 27 29 29 27 25 22 21 20 20 20 19 16 11 8 7 6 5 5 4 0 6 9 9 9 9 7 5 8 14 17 18 18 18 19 22 24 25 26 28 29 29 30 30 30 29 29 29 28 28 28 28 28 27 26 25 24 25
8 7 7 8 9 10 11 13 14 15 16 17 17 17 17 17 18 18 17 18 18 19 21 23 24 25 25 26 26 27 28 29 27 24 22 20 20 20 20 18 15 10 8 6 5 3 1 3 8 11 9 7 7 7 7 8 11 15 17 18 19 20 22 25 26 26 27 28 28 28 28 28 28 28 28 28 28 29 30 29 28 26 25 26 29
8 7 7 8 9 11 12 13 14 15 16 17 17 17 17 17 18 18 18 17 17 18 19 21 23 24 24 25 26 26 27 28 28 27 24 21 20 20 19 19 17 14 11 9 8 6 3 2 7 12 11 9 7 7 7 8 10 12 14 16 18 19 20 22 24 25 26 27 27 27 28 28 29 30 29 29 29 29 29 28 27 27 27 29 31
8 8 8 9 10 11 12 13 15 16 16 16 17 17 16 16 16 17 17 17 17 17 17 19 21 22 23 24 25 26 26 26 27 28 27 24 21 20 19 19 18 16 14 11 9 8 6 2 3 8 11 11 9 9 8 9 11 13 13 14 15 17 18 20 21 22 22 24 26 27 28 29 29 29 29 29 28 27 27 27 28 28 28 28 29
Wind_Direction
269 268 269 269 268 268 268 267 266 265 265 265 265 265 265 265 265 265 265 264 265 265 265 266 266 266 267 267 268 268 268 268 268 267 267 267 266 265 264 263 263 263 262 261 260 261 262 263 264 265 265 264 264 263 263 262 262 262 262 262 262 262 261 261 261 259 258 258 257 257 256 255 255 255 256 256 256 255 256 255 256 257 258 260 262
276 274 277 279 277 275 273 272 271 269 267 266 265 265 266 266 266 267 267 268 268 268 269 269 270 270 271 271 271 271 271 271 271 271 270 270 269 268 267 265 265 264 264 263 262 261 260 260 261 263 264 265 265 264 263 263 263 262 262 262 262 262 262 262 261 260 259 258 258 258 258 257 257 256 256 257 257 257 257 256 256 257 257 258 260
279 277 280 284 283 280 277 275 274 273 271 269 268 267 267 267 268 269 270 272 272 273 274 275 276 276 276 275 274 274 273 273 273 272 272 272 272 271 270 269 268 267 266 265 264 263 262 260 259 259 261 262 264 264 263 263 263 263 262 262 262 262 262 262 262 261 260 258 258 258 259 259 259 258 258 257 257 257 257 258 257 257 256 257 258
276 274 277 282 283 281 279 277 275 273 273 274 273 271 269 269 270 272 273 275 277 279 280 280 280 280 280 279 278 277 276 275 275 274 274 273 273 272 272 271 270 269 268 267 266 265 264 263 261 260 259 259 260 261 262 262 262 262 262 262 262 261 261 262 262 262 261 259 258 259 259 260 260 260 259 259 259 258 258 257 257 256 256 256 256
268 266 271 279 282 280 277 276 275 274 274 275 275 272 270 269 270 271 274 277 280 282 282 283 283 283 282 281 280 279 279 278 278 277 276 276 275 274 273 272 271 270 269 268 267 266 265 264 263 262 260 259 257 258 259 261 261 261 261 261 261 261 261 261 261 262 262 261 259 259 258 259 260 260 260 260 260 259 258 256 255 255 255 254 255
266 264 269 277 278 276 274 275 276 277 276 275 273 272 270 268 269 271 273 277 281 282 283 284 284 283 283 282 281 281 280 280 280 280 279 279 278 277 275 274 273 271 270 269 268 267 266 264 264 263 262 261 259 257 256 257 259 260 260 260 260 260 260 261 261 261 261 261 260 259 259 259 259 260 260 261 260 260 259 257 255 255 256 254 254
269 269 270 272 271 269 270 273 275 276 276 274 272 270 269 268 268 269 272 276 279 281 282 283 284 283 283 282 282 281 281 281 282 282 282 282 281 280 278 277 275 274 273 271 270 269 267 266 264 263 263 262 260 259 257 256 256 257 258 259 259 259 259 260 260 260 260 260 259 258 258 258 258 259 259 259 259 260 259 258 255 255 256 255 252
268 269 269 268 267 267 269 270 272 274 274 272 269 268 267 267 266 267 271 276 277 278 279 280 281 281 281 281 281 281 281 281 282 283 284 284 284 283 282 280 279 277 275 274 272 270 269 268 266 265 263 262 261 260 258 257 255 255 256 257 258 258 258 259 259 259 259 259 259 258 257 257 258 258 258 258 258 259 259 258 255 251 251 251 250
267 271 271 269 268 268 268 270 272 274 273 268 266 266 265 264 264 266 271 274 275 274 276 277 278 278 279 280 281 281 281 280 281 283 284 285 285 285 284 283 282 280 278 277 274 272 271 269 268 266 265 263 262 260 259 258 256 255 254 255 256 256 257 258 258 259 259 259 259 259 258 257 257 257 257 257 257 258 257 257 254 250 249 250 250
267 269 269 268 269 269 269 269 270 274 275 268 263 264 263 262 263 266 270 273 272 271 272 273 275 276 277 279 281 281 280 279 281 283 284 285 285 286 286 285 284 283 281 279 277 275 273 271 269 267 266 265 263 262 260 259 258 256 254 254 254 254 255 256 257 257 258 258 258 258 257 257 257 256 256 256 256 256 256 255 254 251 250 251 251
264 266 267 266 265 266 267 267 268 272 274 269 264 262 262 262 263 266 269 270 269 268 269 271 272 274 276 277 280 280 278 278 281 284 285 286 286 287 287 287 286 284 283 281 279 277 275 273 270 268 267 265 264 263 261 260 259 257 256 255 254 253 253 254 255 256 256 257 257 257 257 256 256 256 256 255 255 255 256 256 255 252 250 250 249
263 265 266 264 264 264 264 266 268 269 270 270 265 261 261 263 263 264 266 267 266 266 267 269 271 273 274 276 278 278 276 277 281 284 286 286 287 287 287 287 286 285 283 281 279 277 275 273 271 269 267 266 264 263 262 261 259 258 257 255 254 254 253 253 253 254 254 255 255 256 257 256 255 255 255 255 254 254 254 254 254 251 247 246 247
261 261 260 260 262 264 264 265 267 266 269 272 267 260 261 263 262 262 262 263 264 265 267 269 271 272 272 274 276 276 276 278 282 285 286 287 288 288 287 287 287 286 284 281 279 277 275 273 271 269 267 266 264 263 262 261 260 258 257 256 255 254 253 253 252 252 252 253 253 254 255 255 255 254 254 253 252 252 252 252 252 250 247 245 245
261 260 260 260 262 263 263 264 264 266 270 274 270 264 263 264 260 258 258 259 261 264 267 269 270 270 271 272 273 275 276 280 284 286 288 289 289 288 287 287 287 287 285 283 280 278 275 273 271 269 267 266 264 263 262 261 260 258 257 256 255 254 253 253 253 252 252 252 252 252 252 253 254 253 253 252 252 251 251 251 250 250 248 247 245
259 259 260 260 260 262 263 263 265 267 269 271 270 267 265 262 257 255 256 259 263 266 267 268 268 268 269 270 271 274 277 281 284 287 288 289 290 290 289 288 287 286 285 283 281 279 276 274 272 270 268 266 264 263 262 260 259 258 257 256 256 255 254 253 253 252 252 251 250 250 250 251 252 251 251 252 252 252 251 250 250 249 249 248 246
256 257 257 257 258 258 259 261 264 265 265 266 267 265 263 259 254 255 259 264 266 266 265 266 267 268 269 270 272 275 278 281 284 286 288 289 290 290 290 289 288 286 284 282 280 278 276 274 272 270 268 266 264 263 261 260 259 258 257 256 255 255 254 254 253 252 251 251 250 249 248 248 249 250 249 250 250 250 250 250 250 250 249 248 247
254 254 255 256 256 257 257 258 260 262 262 261 260 259 256 252 251 261 268 267 265 264 264 266 267 269 271 272 274 276 278 281 283 285 287 288 289 290 291 290 287 284 281 280 278 277 276 274 273 271 269 267 264 262 261 260 259 258 257 256 255 254 254 254 254 253 252 251 249 248 247 246 247 247 247 248 248 248 248 248 249 250 250 250 249
255 254 254 254 255 256 257 256 256 258 261 262 259 254 248 245 256 271 275 269 266 266 266 267 269 271 273 275 276 278 279 281 284 286 287 288 290 290 290 287 284 281 279 278 278 277 275 274 273 271 269 267 265 263 261 260 258 257 256 255 255 254 253 253 254 254 253 252 250 248 247 245 245 245 246 246 247 248 248 248 248 248 249 249 249
258 257 257 257 257 256 256 255 254 256 261 266 264 253 245 252 270 281 278 272 271 270 269 270 272 274 275 277 278 279 281 283 285 286 288 289 290 289 287 284 282 281 280 279 277 276 275 274 273 271 269 267 266 264 262 261 259 258 256 255 254 254 253 252 252 252 253 252 250 248 247 245 244 243 244 245 246 246 247 247 247 247 247 247 248
259 257 256 257 257 255 254 254 253 255 260 265 265 257 255 268 280 282 277 273 273 272 272 273 275 276 278 279 280 282 284 285 286 287 288 289 288 287 286 284 283 282 280 279 277 276 275 274 273 271 269 267 266 264 263 262 261 259 258 257 255 253 252 251 251 251 250 251 250 249 247 246 245 243 242 242 244 245 246 246 246 246 246 245 245
256 253 252 254 254 253 252 251 251 252 256 261 265 265 268 276 279 276 274 273 274 274 275 276 277 279 280 282 283 284 285 286 287 288 288 288 288 288 287 286 284 282 280 279 278 277 276 275 273 271 270 268 266 265 263 263 262 261 260 259 257 254 252 250 249 249 249 249 249 249 248 246 245 243 241 241 242 244 245 245 245 244 244 244 243
253 249 247 249 249 249 250 250 250 251 253 257 263 268 272 275 275 273 273 275 275 276 277 278 280 281 282 284 285 285 286 287 288 288 289 289 289 288 287 286 285 283 282 281 281 280 278 275 272 270 268 266 265 265 264 264 264 263 262 260 258 255 253 250 248 248 248 248 247 247 247 246 245 244 242 241 241 242 243 244 243 242 242 242 242
247 243 242 242 242 243 245 247 249 251 251 254 260 266 269 271 271 272 275 277 277 278 280 281 282 283 284 285 285 286 287 288 289 290 290 289 289 288 288 287 287 287 285 284 282 279 275 271 269 267 266 265 264 264 265 265 265 265 264 262 259 256 253 250 248 247 247 247 247 246 246 246 245 244 243 241 240 240 241 242 242 240 239 239 240
239 238 237 236 236 237 241 246 250 251 251 254 259 263 265 267 269 273 276 277 279 280 282 283 283 284 284 285 287 288 289 290 291 291 290 289 289 289 289 289 288 288 287 285 281 276 272 271 270 269 266 265 264 264 265 265 265 264 263 261 259 256 253 251 249 247 246 246 246 246 245 245 245 244 242 241 240 239 238 238 239 238 236 236 237
231 230 229 229 231 235 239 243 246 247 250 253 257 261 263 267 271 274 276 278 280 282 283 283 284 285 286 288 289 290 291 291 291 290 290 290 290 290 289 289 288 287 285 282 279 277 277 276 273 270 267 266 265 264 264 264 263 262 261 259 258 256 253 251 249 248 246 245 244 245 244 243 243 243 241 239 239 238 237 236 237 237 236 235 235
221 222 223 224 227 230 233 236 239 243 248 254 258 261 265 269 273 276 279 280 282 283 284 285 286 287 289 290 290 291 291 291 291 291 291 291 291 290 289 288 287 285 283 281 281 282 282 279 275 271 269 267 265 263 262 261 260 259 258 257 256 254 252 250 248 247 246 243 241 241 242 241 241 240 239 238 237 237 236 235 235 236 236 235 235
218 223 225 224 225 228 230 234 238 244 250 255 260 265 270 274 278 280 282 283 284 285 286 288 289 290 290 291 292 292 293 293 293 293 292 292 291 290 289 288 286 284 284 284 285 284 281 277 274 272 269 266 263 261 259 258 258 257 257 256 256 255 253 251 249 247 245 242 239 238 238 238 238 237 238 237 236 236 236 235 234 234 234 234 233
215 220 224 226 228 231 233 236 241 247 254 260 267 272 276 280 282 284 285 286 287 288 288 290 290 291 292 292 293 295 296 297 296 295 294 293 292 290 288 287 285 285 286 287 286 283 278 275 273 271 268 264 262 261 260 259 259 259 258 257 255 254 253 252 251 248 246 243 240 236 235 236 235 234 235 235 234 233 234 234 233 232 232 232 232
214 219 224 227 229 230 232 238 246 254 263 270 274 278 282 284 286 287 287 288 289 289 290 291 292 293 295 296 298 299 300 299 299 297 295 293 291 289 287 285 285 286 287 287 284 280 277 275 274 272 269 266 264 264 263 263 262 261 261 259 256 254 251 251 250 249 247 243 239 235 234 233 232 231 232 233 232 231 232 233 232 231 231 231 231
219 220 219 219 221 227 235 245 256 265 272 276 279 282 285 287 287 288 288 289 290 291 292 294 295 297 300 303 304 304 303 302 300 298 296 294 292 290 288 287 287 287 286 285 281 278 277 278 277 275 271 267 265 264 264 264 264 263 263 262 259 254 251 250 249 249 247 243 239 234 231 231 230 229 228 229 229 229 230 231 231 230 229 229 230
210 208 207 212 223 235 246 257 268 275 277 280 282 284 287 288 288 289 289 290 291 293 295 297 300 303 306 307 308 307 306 303 301 300 299 298 296 293 291 290 290 288 285 282 279 278 279 281 282 280 273 266 263 263 264 265 265 265 263 260 256 253 251 249 247 245 243 240 235 231 229 228 228 227 225 225 225 225 227 229 229 228 227 228 228
203 204 209 220 230 240 252 264 273 277 279 282 284 287 289 291 292 291 291 291 293 295 299 303 306 309 310 311 311 310 307 304 303 304 305 303 298 294 292 292 292 289 285 280 278 277 278 280 282 282 278 271 266 265 266 266 266 263 259 254 252 252 251 248 245 241 238 233 227 223 223 225 225 224 222 221 220 221 223 225 227 227 227 228 229
203 210 217 224 231 243 258 270 277 281 284 287 289 292 294 296 295 293 293 295 297 301 305 309 311 313 314 314 314 313 310 308 309 312 311 306 298 292 291 291 292 291 288 282 278 276 276 276 277 280 281 276 270 268 267 266 261 255 251 251 254 254 251 246 242 238 234 226 219 216 217 219 220 220 219 218 217 216 217 220 222 223 224 227 229
209 218 224 229 238 255 269 278 282 286 289 292 294 297 299 298 297 297 299 303 306 309 312 314 315 317 318 318 317 315 313 313 316 319 316 309 300 292 288 290 294 297 296 289 280 274 273 273 275 279 280 274 267 266 266 258 247 243 249 256 258 254 248 241 236 233 229 221 214 211 211 213 214 216 216 215 212 211 212 216 219 220 222 225 228
219 227 232 238 251 266 275 280 284 288 291 296 300 303 304 304 304 305 307 309 311 313 315 317 318 319 320 320 319 317 316 318 323 324 319 312 305 295 288 289 294 299 302 298 287 277 271 271 275 279 276 264 262 268 261 243 234 241 252 258 257 251 243 235 230 226 223 218 212 209 208 208 210 211 210 206 204 205 209 213 216 218 221 224 227
223 230 236 246 257 267 273 280 288 294 299 304 310 313 315 316 315 313 312 312 314 315 316 317 319 321 323 324 322 320 320 323 326 326 321 315 309 298 289 289 294 299 302 298 288 277 271 271 274 274 260 242 263 288 266 238 231 241 255 261 260 252 240 231 224 219 216 213 210 207 206 206 205 203 201 197 195 197 204 209 213 217 220 223 226
224 232 242 252 260 267 277 289 298 305 310 316 322 325 325 323 320 316 315 315 315 316 317 319 322 325 327 327 325 323 322 325 328 329 325 318 311 303 297 297 300 302 301 295 284 274 273 274 272 263 243 229 267 301 274 242 230 238 254 267 269 257 238 227 220 213 209 206 203 200 200 199 198 196 194 192 191 195 202 209 212 215 219 223 227
226 236 247 255 263 275 290 303 310 316 323 328 330 329 327 325 322 320 319 317 317 317 319 322 325 328 329 329 327 325 324 326 329 331 327 318 314 312 308 306 307 304 301 297 288 278 276 275 266 255 252 248 255 288 269 242 232 235 249 269 279 267 236 222 214 207 203 200 197 194 193 192 192 192 189 188 191 198 205 210 214 217 221 225 228
232 241 250 260 275 294 307 317 326 332 335 334 331 328 327 326 325 323 320 319 320 321 322 325 328 331 332 332 331 328 326 326 329 330 325 314 311 313 313 313 314 309 298 289 283 276 274 267 251 249 262 263 256 277 280 248 237 234 241 265 275 262 220 209 206 201 198 196 192 190 189 188 187 185 182 185 194 202 207 211 215 218 221 225 229
236 245 256 271 289 305 320 334 341 341 337 332 329 328 328 327 326 325 324 325 326 326 326 328 331 333 335 336 335 332 328 327 330 334 331 318 308 310 318 324 326 321 305 277 256 247 247 238 231 239 251 256 251 257 282 273 244 232 231 248 255 238 204 198 196 193 193 192 189 186 184 182 179 178 181 189 197 203 208 210 212 215 219 224 228
226 242 259 273 287 310 332 341 343 339 333 330 329 329 328 328 329 330 331 332 331 330 331 332 333 335 338 341 340 336 332 332 335 338 340 334 319 311 319 327 330 336 335 307 266 244 234 221 220 232 237 230 233 245 257 273 252 228 219 219 221 215 205 194 189 187 186 187 188 183 178 177 178 181 187 195 200 204 207 208 210 214 219 223 228
220 235 249 263 286 318 334 336 335 333 330 330 330 329 329 332 334 336 336 335 334 334 335 335 336 339 342 344 343 340 338 339 340 341 345 346 335 317 316 323 330 357 2 339 298 260 242 227 220 227 230 222 218 224 227 232 239 224 210 203 202 204 200 187 182 179 177 180 185 183 179 179 183 186 190 196 201 204 205 207 210 214 218 223 229
219 232 242 262 293 316 324 324 325 327 328 329 330 331 333 336 337 337 338 339 338 337 338 339 341 344 346 347 347 345 343 343 343 344 347 350 344 328 320 319 316 345 2 355 327 286 263 241 227 224 223 222 221 219 216 219 224 220 212 206 200 193 187 178 171 167 167 173 180 181 181 181 184 186 192 198 201 202 205 208 212 215 220 226 233
224 234 248 273 292 303 310 313 317 322 325 327 329 333 336 337 338 339 341 341 340 340 342 343 345 348 351 351 350 350 348 347 347 347 350 353 349 338 332 327 310 322 1 12 4 330 304 258 234 226 220 219 225 232 235 235 229 216 211 209 201 190 181 176 168 162 164 173 180 182 183 183 183 186 195 202 202 203 207 211 214 218 223 229 235
230 241 258 274 286 297 306 310 314 319 322 324 328 332 334 336 338 339 341 342 342 343 344 346 347 351 355 356 354 353 353 352 352 352 354 355 353 346 342 341 323 312 353 20 13 352 341 326 223 220 214 214 223 231 228 223 224 221 214 209 204 195 185 181 177 172 171 176 181 184 186 187 190 194 200 203 204 206 210 212 215 219 224 230 233
234 247 261 274 286 297 304 309 313 316 317 320 325 327 328 330 333 336 339 343 344 344 345 347 350 353 358 360 359 358 357 357 358 358 358 358 357 354 351 348 338 323 329 6 11 2 356 32 136 166 172 172 186 226 212 204 213 222 220 210 205 202 194 188 187 185 181 180 183 187 190 194 197 200 202 203 205 209 211 212 216 220 225 229 231
245 251 262 276 289 296 300 305 310 312 313 317 321 323 324 325 327 329 335 341 345 345 346 348 351 354 358 2 4 3 1 359 1 3 3 2 2 2 2 359 351 341 334 339 354 359 359 6 163 163 156 148 147 187 209 195 198 208 214 210 206 206 203 198 194 194 194 192 191 194 197 199 201 202 203 205 208 212 213 215 217 221 224 226 223
247 254 265 278 290 297 301 305 307 309 312 315 318 320 322 323 323 326 330 337 343 346 347 348 351 355 358 1 5 7 6 3 3 5 7 8 9 9 9 8 5 358 349 338 329 335 349 4 177 175 168 161 163 168 174 176 180 188 200 206 205 203 204 204 201 200 201 201 200 201 203 204 206 208 208 209 213 215 215 215 216 219 221 218 212
246 258 271 283 292 298 302 304 305 307 309 312 315 318 320 322 324 327 330 334 339 345 348 350 352 355 357 360 4 8 9 7 6 6 9 12 15 15 15 15 13 10 8 5 352 338 356 161 176 178 176 180 185 176 164 168 176 179 188 196 198 195 197 200 201 202 205 207 208 208 209 210 213 216 215 214 215 216 213 211 212 213 213 209 206
251 260 271 281 289 294 297 299 301 303 305 308 312 316 319 321 325 328 331 335 338 343 349 352 353 355 357 360 2 6 9 10 9 8 9 12 16 18 20 21 20 16 16 19 14 4 11 129 176 181 182 190 204 199 182 178 179 176 178 184 186 185 188 193 196 199 202 205 208 211 212 213 214 216 216 215 213 211 208 206 207 208 206 203 204
247 257 266 275 281 286 291 293 296 298 301 305 310 314 317 321 324 328 332 337 339 343 349 354 355 355 357 360 1 3 6 9 12 12 12 11 14 18 21 24 25 23 21 23 19 9 3 5 191 189 188 191 201 210 210 200 186 181 183 184 179 176 179 184 186 190 195 199 202 205 207 208 209 211 211 210 208 205 204 202 201 203 204 204 206
Height
5715 5715 5714 5715 5715 5715 5715 5715 5715 5715 5716 5716 5717 5717 5717 5717 5717 5718 5718 5719 5719 5719 5719 5720 5720 5721 5721 5721 5721 5721 5722 5722 5722 5722 5722 5722 5723 5723 5724 5725 5725 5725 5726 5726 5727 5727 5728 5728 5727 5727 5727 5728 5729 5729 5729 5729 5730 5730 5730 5731 5731 5732 5733 5733 5734 5738 5742 5743 5743 5744 5744 5744 5745 5747 5749 5752 5755 5756 5758 5760 5761 5761 5761 5762 5762
5712 5712 5711 5711 5711 5711 5711 5711 5711 5711 5711 5712 5712 5712 5713 5713 5713 5713 5713 5714 5714 5714 5715 5715 5715 5716 5716 5716 5716 5716 5716 5716 5716 5716 5716 5716 5716 5717 5717 5718 5719 5719 5719 5719 5720 5721 5722 5722 5721 5721 5721 5721 5722 5722 5722 5723 5723 5724 5724 5724 5725 5725 5725 5726 5726 5729 5734 5736 5736 5736 5736 5736 5738 5740 5742 5744 5747 5748 5750 5753 5755 5756 5756 5756 5757
5708 5708 5707 5707 5707 5707 5707 5707 5707 5707 5707 5708 5708 5708 5708 5708 5708 5708 5708 5709 5709 5709 5710 5710 5710 5710 5710 5710 5711 5710 5710 5710 5710 5710 5710 5710 5710 5710 5710 5711 5711 5712 5712 5713 5713 5713 5714 5715 5715 5715 5715 5715 5715 5715 5715 5715 5716 5716 5717 5717 5718 5719 5719 5719 5719 5720 5725 5729 5729 5729 5729 5729 5730 5732 5734 5736 5738 5741 5743 5746 5748 5749 5750 5751 5751
5703 5703 5703 5703 5703 5703 5703 5703 5703 5703 5704 5704 5704 5704 5704 5704 5704 5704 5704 5704 5704 5704 5705 5705 5705 5705 5705 5705 5705 5705 5704 5704 5704 5704 5704 5704 5704 5703 5703 5703 5704 5704 5705 5705 5705 5706 5706 5707 5707 5707 5708 5709 5708 5707 5707 5708 5708 5709 5710 5710 5711 5712 5712 5712 5712 5712 5715 5721 5723 5722 5723 5722 5723 5725 5726 5728 5731 5734 5736 5739 5741 5742 5743 5744 5745
5697 5698 5699 5699 5699 5699 5699 5699 5698 5699 5699 5699 5699 5699 5699 5699 5699 5699 5699 5699 5699 5699 5700 5700 5699 5699 5699 5699 5699 5699 5698 5698 5698 5697 5697 5697 5697 5697 5697 5697 5697 5697 5697 5697 5697 5698 5698 5699 5699 5699 5700 5701 5701 5701 5700 5700 5700 5701 5702 5703 5703 5704 5705 5706 5706 5706 5707 5711 5715 5716 5716 5716 5716 5718 5720 5722 5724 5726 5728 5731 5733 5734 5736 5737 5739
5692 5692 5693 5694 5695 5695 5695 5694 5694 5694 5694 5694 5694 5694 5694 5694 5694 5694 5694 5694 5694 5694 5694 5694 5694 5694 5693 5693 5693 5692 5692 5692 5691 5691 5691 5691 5691 5690 5690 5690 5690 5690 5690 5690 5690 5690 5690 5691 5691 5691 5691 5692 5693 5693 5693 5693 5693 5693 5694 5695 5696 5696 5698 5698 5699 5700 5700 5703 5707 5709 5709 5709 5710 5711 5713 5715 5716 5718 5720 5723 5726 5727 5729 5731 5733
5688 5688 5689 5689 5690 5690 5690 5690 5689 5689 5689 5689 5689 5689 5689 5689 5688 5689 5689 5689 5689 5689 5689 5688 5688 5688 5688 5687 5687 5687 5686 5686 5685 5685 5685 5684 5684 5684 5684 5683 5683 5683 5683 5683 5682 5682 5682 5682 5683 5683 5683 5683 5684 5684 5685 5685 5686 5686 5686 5687 5688 5689 5690 5691 5691 5693 5694 5695 5698 5701 5702 5702 5703 5704 5706 5708 5709 5711 5713 5715 5719 5721 5723 5725 5727
5683 5684 5684 5685 5685 5685 5685 5685 5684 5683 5683 5684 5684 5684 5684 5683 5683 5683 5683 5683 5684 5684 5683 5683 5683 5682 5682 5682 5681 5681 5681 5680 5680 5679 5679 5678 5678 5677 5677 5677 5676 5676 5675 5675 5675 5674 5674 5674 5674 5674 5674 5675 5675 5676 5676 5677 5677 5678 5678 5679 5680 5681 5682 5683 5684 5685 5686 5688 5690 5693 5695 5695 5695 5697 5699 5700 5702 5704 5706 5708 5712 5714 5715 5716 5718
5678 5678 5679 5680 5680 5679 5679 5678 5678 5677 5677 5678 5678 5678 5678 5678 5678 5678 5678 5678 5678 5678 5678 5678 5677 5677 5677 5676 5676 5676 5675 5675 5674 5674 5673 5672 5672 5671 5671 5670 5670 5669 5668 5668 5667 5667 5666 5666 5666 5666 5666 5666 5666 5667 5667 5668 5669 5670 5671 5671 5671 5673 5674 5675 5676 5677 5679 5680 5683 5685 5687 5688 5689 5690 5691 5693 5695 5696 5698 5701 5704 5707 5708 5710 5712
5671 5671 5672 5673 5673 5673 5672 5672 5671 5670 5670 5671 5671 5672 5672 5672 5672 5672 5673 5673 5673 5673 5673 5672 5672 5672 5671 5671 5670 5670 5670 5669 5668 5668 5667 5666 5666 5665 5665 5664 5663 5662 5661 5661 5660 5659 5658 5658 5658 5657 5657 5657 5657 5658 5658 5659 5660 5661 5662 5663 5663 5664 5666 5667 5668 5669 5670 5673 5675 5677 5679 5681 5683 5683 5684 5687 5688 5688 5690 5693 5696 5700 5702 5704 5706
5663 5664 5665 5666 5666 5667 5666 5665 5665 5664 5663 5663 5664 5665 5665 5665 5666 5666 5667 5667 5667 5667 5667 5667 5666 5666 5666 5665 5665 5664 5664 5663 5662 5661 5660 5659 5659 5658 5658 5657 5656 5655 5654 5653 5653 5652 5650 5650 5649 5649 5649 5648 5648 5648 5649 5650 5650 5651 5653 5654 5655 5656 5657 5659 5661 5661 5662 5664 5667 5669 5671 5674 5676 5676 5677 5680 5681 5681 5684 5686 5688 5693 5696 5698 5700
5656 5657 5658 5659 5659 5659 5659 5660 5659 5657 5655 5656 5656 5658 5658 5659 5659 5660 5660 5661 5661 5662 5661 5661 5661 5660 5660 5659 5659 5658 5658 5657 5656 5655 5654 5653 5652 5651 5650 5649 5649 5648 5646 5645 5644 5643 5643 5642 5641 5640 5640 5639 5639 5639 5639 5640 5641 5642 5643 5644 5646 5647 5648 5650 5652 5653 5654 5656 5658 5661 5663 5666 5668 5669 5671 5673 5674 5675 5677 5679 5681 5685 5688 5691 5693
5647 5649 5651 5651 5652 5653 5653 5654 5653 5651 5650 5649 5649 5650 5652 5653 5653 5653 5654 5655 5655 5656 5656 5655 5655 5655 5654 5653 5653 5652 5652 5651 5650 5648 5647 5646 5645 5644 5642 5641 5640 5639 5638 5637 5636 5635 5634 5633 5633 5632 5631 5630 5630 5630 5630 5630 5631 5632 5633 5634 5636 5638 5639 5640 5642 5644 5646 5647 5650 5654 5655 5656 5660 5663 5663 5664 5666 5667 5669 5672 5674 5676 5680 5683 5686
5639 5640 5642 5644 5645 5646 5646 5647 5647 5645 5644 5644 5644 5645 5646 5647 5647 5647 5648 5648 5649 5650 5650 5649 5649 5649 5648 5647 5646 5645 5644 5643 5642 5641 5640 5639 5637 5636 5635 5633 5632 5630 5629 5628 5627 5626 5625 5624 5624 5623 5622 5622 5621 5621 5620 5620 5621 5622 5623 5624 5626 5628 5630 5631 5632 5634 5637 5639 5641 5645 5648 5648 5651 5655 5655 5655 5658 5660 5662 5665 5667 5668 5671 5675 5678
5631 5632 5634 5636 5637 5638 5639 5641 5641 5639 5638 5638 5638 5639 5641 5641 5641 5642 5642 5643 5643 5644 5644 5643 5643 5642 5641 5640 5639 5638 5637 5636 5635 5634 5633 5631 5629 5628 5626 5624 5623 5621 5620 5618 5617 5616 5615 5614 5614 5614 5613 5613 5612 5611 5611 5611 5611 5612 5613 5615 5617 5618 5620 5622 5622 5623 5626 5629 5632 5636 5639 5640 5642 5646 5647 5648 5650 5653 5655 5658 5659 5661 5664 5667 5669
5622 5624 5626 5627 5629 5631 5632 5633 5634 5632 5631 5631 5632 5634 5635 5635 5636 5637 5637 5637 5638 5637 5637 5637 5636 5635 5634 5633 5632 5631 5630 5628 5627 5626 5624 5622 5621 5619 5617 5615 5614 5612 5611 5609 5607 5606 5605 5604 5604 5604 5604 5604 5603 5602 5601 5601 5601 5602 5604 5606 5607 5609 5611 5612 5611 5613 5616 5619 5623 5627 5630 5632 5634 5636 5639 5640 5642 5645 5647 5649 5651 5654 5658 5660 5663
5614 5616 5618 5619 5621 5622 5624 5626 5627 5625 5623 5623 5625 5627 5628 5629 5631 5632 5632 5631 5631 5630 5630 5630 5629 5628 5627 5626 5625 5624 5623 5621 5619 5618 5616 5613 5611 5609 5607 5605 5604 5602 5601 5599 5597 5596 5595 5594 5594 5593 5594 5594 5593 5592 5591 5590 5591 5592 5594 5596 5597 5599 5602 5602 5601 5604 5606 5609 5613 5617 5621 5623 5625 5627 5630 5632 5634 5636 5637 5640 5645 5649 5652 5654 5658
5605 5608 5610 5612 5613 5614 5617 5619 5620 5618 5617 5617 5618 5620 5622 5623 5625 5625 5625 5624 5624 5623 5623 5623 5622 5621 5620 5619 5617 5616 5615 5613 5611 5609 5607 5604 5601 5599 5597 5595 5594 5592 5591 5589 5587 5586 5585 5584 5583 5583 5583 5583 5582 5581 5581 5580 5581 5582 5583 5585 5587 5590 5593 5592 5592 5595 5597 5598 5603 5607 5610 5613 5616 5618 5622 5624 5626 5628 5629 5634 5639 5642 5645 5648 5652
5597 5600 5603 5604 5605 5608 5610 5610 5611 5612 5612 5612 5614 5616 5617 5617 5617 5617 5617 5617 5617 5616 5616 5616 5615 5614 5613 5611 5610 5609 5608 5606 5603 5600 5598 5594 5591 5589 5586 5584 5583 5582 5580 5579 5578 5577 5576 5575 5574 5573 5572 5571 5571 5570 5570 5569 5569 5571 5573 5574 5578 5581 5583 5582 5584 5586 5586 5588 5592 5596 5600 5604 5607 5611 5614 5616 5618 5620 5622 5627 5632 5634 5638 5642 5645
5588 5591 5594 5596 5598 5600 5601 5601 5603 5605 5606 5607 5609 5611 5611 5611 5610 5611 5611 5611 5610 5610 5609 5609 5608 5607 5605 5604 5602 5601 5599 5597 5594 5591 5588 5585 5581 5578 5576 5574 5573 5571 5570 5570 5569 5568 5567 5565 5564 5563 5561 5560 5559 5559 5558 5558 5559 5561 5563 5565 5568 5572 5572 5572 5575 5576 5576 5579 5582 5585 5589 5594 5598 5602 5606 5608 5610 5612 5616 5620 5624 5628 5632 5636 5638
5580 5583 5586 5589 5591 5592 5593 5594 5596 5598 5600 5602 5604 5605 5605 5605 5605 5605 5605 5605 5604 5604 5603 5602 5601 5600 5598 5596 5595 5592 5590 5587 5585 5581 5578 5575 5571 5568 5566 5564 5562 5561 5561 5560 5559 5558 5557 5555 5554 5552 5550 5549 5548 5547 5548 5548 5548 5550 5553 5555 5558 5560 5560 5562 5565 5565 5566 5570 5572 5575 5580 5585 5589 5593 5597 5600 5603 5605 5609 5613 5618 5621 5626 5629 5631
5573 5577 5579 5582 5584 5585 5586 5587 5590 5592 5595 5598 5599 5599 5600 5600 5600 5600 5600 5599 5598 5597 5596 5595 5594 5593 5591 5589 5586 5584 5580 5577 5575 5572 5568 5565 5562 5559 5556 5554 5552 5550 5550 5550 5549 5547 5546 5544 5543 5541 5540 5539 5538 5538 5538 5538 5538 5540 5543 5545 5547 5548 5549 5552 5554 5555 5556 5560 5562 5565 5570 5576 5581 5585 5589 5593 5597 5599 5602 5607 5611 5615 5619 5622 5625
5568 5570 5572 5575 5578 5579 5580 5581 5584 5587 5590 5592 5593 5594 5595 5595 5595 5595 5594 5593 5592 5590 5589 5588 5587 5585 5584 5581 5578 5575 5572 5568 5565 5562 5559 5556 5553 5550 5547 5545 5542 5540 5539 5539 5538 5537 5535 5534 5533 5532 5531 5530 5529 5528 5528 5528 5529 5531 5533 5534 5536 5537 5538 5540 5543 5545 5547 5550 5553 5557 5561 5567 5573 5578 5581 5585 5589 5592 5596 5599 5603 5607 5611 5614 5616
5562 5565 5567 5570 5572 5573 5574 5577 5579 5582 5584 5586 5588 5589 5590 5590 5590 5589 5588 5587 5585 5584 5583 5581 5580 5578 5576 5573 5570 5567 5563 5560 5556 5553 5550 5547 5544 5541 5538 5535 5533 5530 5528 5527 5527 5526 5525 5525 5524 5523 5521 5520 5519 5519 5519 5519 5520 5521 5523 5524 5525 5526 5527 5530 5533 5535 5538 5541 5545 5549 5554 5559 5564 5569 5573 5577 5580 5583 5587 5591 5595 5598 5602 5605 5608
5559 5561 5562 5564 5565 5568 5570 5573 5575 5578 5580 5581 5583 5584 5584 5584 5583 5582 5582 5581 5579 5578 5576 5574 5573 5570 5568 5566 5563 5559 5555 5552 5549 5545 5541 5538 5535 5532 5529 5526 5523 5520 5518 5517 5516 5516 5516 5515 5514 5513 5511 5510 5509 5509 5510 5510 5510 5511 5512 5513 5514 5516 5518 5521 5523 5525 5528 5533 5537 5541 5545 5550 5555 5560 5565 5567 5570 5574 5579 5584 5588 5591 5594 5598 5601
5555 5556 5557 5559 5562 5565 5567 5569 5571 5574 5575 5577 5578 5578 5578 5578 5577 5577 5576 5574 5573 5571 5569 5567 5565 5563 5560 5558 5555 5552 5549 5545 5541 5537 5533 5530 5526 5523 5520 5517 5514 5511 5509 5508 5507 5507 5506 5505 5504 5503 5502 5501 5501 5501 5501 5501 5501 5502 5503 5504 5505 5507 5509 5511 5513 5515 5519 5523 5528 5532 5536 5541 5546 5551 5555 5558 5562 5567 5572 5577 5581 5584 5588 5592 5596
5550 5552 5555 5557 5560 5562 5564 5566 5568 5570 5571 5572 5572 5573 5572 5572 5572 5571 5570 5568 5566 5565 5563 5561 5558 5556 5554 5551 5548 5545 5541 5537 5533 5529 5525 5521 5518 5515 5512 5509 5506 5503 5501 5500 5499 5499 5498 5497 5496 5495 5494 5494 5494 5494 5495 5495 5494 5495 5496 5496 5497 5499 5500 5502 5504 5506 5510 5514 5518 5522 5527 5531 5536 5541 5545 5550 5555 5561 5565 5570 5574 5578 5581 5585 5589
5548 5551 5554 5556 5557 5559 5561 5562 5564 5566 5567 5567 5567 5567 5567 5567 5566 5565 5564 5562 5560 5558 5556 5554 5552 5550 5547 5544 5541 5538 5534 5530 5525 5521 5517 5513 5510 5508 5505 5501 5499 5496 5494 5493 5492 5492 5491 5490 5490 5489 5488 5488 5488 5488 5488 5489 5489 5489 5489 5490 5490 5491 5492 5493 5495 5498 5501 5505 5509 5514 5518 5522 5527 5533 5538 5543 5548 5554 5558 5562 5567 5572 5575 5579 5583
5547 5550 5552 5553 5555 5556 5558 5559 5560 5562 5562 5562 5562 5562 5562 5562 5561 5560 5558 5556 5555 5553 5551 5549 5546 5544 5540 5537 5534 5531 5527 5523 5518 5514 5510 5507 5504 5500 5498 5495 5492 5490 5488 5487 5486 5485 5485 5484 5484 5483 5483 5482 5483 5483 5482 5483 5483 5483 5483 5483 5483 5483 5484 5485 5487 5490 5494 5497 5501 5506 5510 5514 5519 5525 5530 5535 5541 5547 5551 5555 5560 5565 5569 5573 5577
5546 5548 5549 5551 5552 5554 5555 5556 5557 5558 5558 5557 5558 5558 5558 5558 5556 5555 5553 5551 5549 5547 5545 5543 5540 5537 5534 5530 5527 5523 5519 5515 5511 5507 5504 5501 5497 5493 5490 5488 5486 5484 5483 5481 5481 5480 5479 5479 5478 5477 5477 5477 5477 5477 5476 5476 5476 5476 5476 5476 5476 5477 5478 5479 5481 5484 5486 5489 5493 5498 5502 5506 5511 5517 5523 5529 5535 5540 5545 5549 5554 5559 5563 5567 5571
5544 5545 5546 5548 5550 5550 5551 5553 5554 5554 5554 5554 5555 5555 5554 5553 5552 5550 5548 5547 5544 5542 5540 5537 5534 5531 5528 5524 5520 5516 5511 5507 5504 5501 5498 5494 5490 5487 5484 5482 5481 5479 5478 5477 5476 5475 5475 5474 5473 5472 5471 5471 5471 5471 5470 5470 5470 5470 5470 5470 5470 5471 5472 5474 5475 5477 5480 5483 5487 5492 5496 5500 5505 5511 5517 5523 5528 5533 5539 5544 5549 5554 5558 5562 5566
5542 5543 5545 5546 5547 5548 5549 5550 5551 5551 5551 5551 5552 5551 5550 5549 5548 5546 5544 5542 5539 5537 5534 5531 5528 5525 5521 5518 5514 5510 5505 5502 5499 5496 5492 5488 5484 5481 5480 5478 5477 5475 5474 5473 5472 5471 5470 5469 5468 5467 5466 5466 5466 5465 5465 5465 5464 5464 5465 5465 5466 5467 5467 5469 5470 5472 5474 5477 5481 5486 5490 5495 5500 5506 5512 5517 5522 5528 5534 5540 5545 5550 5554 5558 5561
5540 5542 5543 5544 5545 5546 5547 5548 5548 5548 5548 5548 5548 5547 5546 5545 5543 5541 5539 5537 5534 5531 5529 5526 5523 5520 5516 5512 5507 5503 5499 5496 5493 5490 5487 5482 5479 5477 5476 5475 5474 5472 5470 5469 5467 5466 5466 5465 5464 5464 5463 5462 5461 5460 5460 5460 5460 5460 5461 5462 5462 5462 5463 5464 5466 5468 5470 5473 5477 5481 5485 5490 5496 5501 5506 5511 5517 5524 5531 5536 5541 5546 5550 5553 5555
5538 5540 5541 5542 5542 5543 5544 5545 5545 5545 5545 5545 5544 5543 5542 5541 5539 5537 5534 5532 5529 5526 5524 5521 5518 5515 5511 5506 5502 5498 5494 5491 5489 5486 5482 5478 5475 5474 5472 5471 5470 5468 5466 5464 5463 5462 5461 5461 5460 5460 5459 5458 5457 5456 5456 5456 5457 5458 5458 5459 5459 5459 5459 5461 5463 5464 5467 5469 5473 5477 5481 5486 5492 5497 5502 5508 5515 5521 5527 5533 5538 5541 5545 5547 5550
5536 5537 5538 5539 5540 5541 5542 5543 5543 5543 5542 5542 5541 5539 5538 5537 5535 5532 5530 5527 5525 5522 5520 5517 5514 5510 5506 5502 5497 5493 5490 5487 5485 5481 5477 5474 5472 5470 5469 5468 5467 5465 5463 5460 5459 5458 5458 5457 5457 5457 5456 5455 5454 5453 5453 5454 5455 5456 5457 5457 5457 5457 5457 5459 5460 5462 5464 5467 5470 5474 5478 5483 5488 5494 5500 5506 5513 5520 5526 5532 5535 5537 5540 5543 5546
5534 5535 5536 5537 5538 5540 5541 5541 5540 5540 5539 5538 5537 5535 5534 5532 5530 5528 5526 5524 5522 5519 5517 5514 5510 5506 5502 5498 5493 5489 5486 5483 5481 5478 5474 5471 5469 5467 5466 5465 5463 5461 5460 5458 5457 5456 5455 5454 5454 5454 5453 5453 5452 5452 5452 5453 5454 5455 5456 5456 5456 5456 5456 5458 5459 5461 5463 5465 5468 5472 5477 5481 5486 5492 5498 5504 5511 5519 5524 5528 5530 5532 5536 5539 5542
5532 5533 5534 5536 5537 5538 5538 5538 5537 5537 5536 5534 5533 5531 5529 5528 5526 5524 5523 5521 5519 5517 5514 5512 5508 5504 5499 5495 5491 5486 5483 5480 5477 5474 5471 5468 5466 5465 5463 5462 5460 5458 5456 5455 5454 5453 5452 5451 5451 5451 5451 5451 5451 5451 5451 5452 5453 5454 5455 5455 5455 5455 5456 5457 5459 5461 5463 5465 5468 5471 5476 5481 5486 5491 5497 5503 5509 5516 5520 5522 5525 5529 5532 5536 5539
5531 5532 5533 5534 5535 5536 5535 5535 5534 5533 5532 5531 5529 5528 5526 5525 5523 5522 5520 5519 5517 5515 5512 5509 5506 5502 5498 5493 5489 5485 5481 5477 5474 5471 5468 5466 5464 5462 5461 5459 5457 5455 5453 5452 5451 5450 5450 5449 5449 5450 5450 5450 5450 5451 5451 5451 5451 5453 5454 5454 5455 5455 5455 5456 5458 5460 5462 5465 5468 5471 5476 5481 5485 5490 5496 5502 5508 5512 5516 5518 5522 5526 5530 5533 5536
5529 5530 5531 5532 5532 5532 5532 5532 5531 5530 5529 5528 5527 5525 5524 5523 5521 5520 5518 5517 5515 5512 5509 5506 5503 5499 5495 5491 5486 5482 5479 5475 5472 5469 5467 5464 5462 5460 5459 5457 5455 5453 5451 5450 5449 5449 5448 5448 5448 5449 5449 5449 5450 5450 5450 5450 5451 5452 5454 5454 5454 5454 5454 5455 5457 5460 5463 5465 5469 5472 5477 5481 5486 5492 5497 5502 5506 5510 5513 5516 5520 5524 5527 5530 5532
5528 5528 5529 5529 5529 5530 5530 5529 5528 5527 5527 5526 5525 5524 5522 5521 5520 5518 5516 5514 5512 5510 5507 5504 5500 5497 5493 5488 5484 5480 5476 5473 5470 5467 5464 5462 5460 5458 5457 5455 5453 5451 5449 5448 5448 5448 5448 5448 5448 5448 5448 5449 5449 5450 5450 5450 5450 5452 5453 5454 5454 5454 5454 5455 5457 5460 5463 5466 5469 5473 5478 5482 5487 5492 5496 5500 5504 5507 5511 5514 5518 5521 5524 5527 5529
5525 5526 5526 5527 5527 5527 5527 5526 5526 5526 5525 5525 5524 5522 5521 5519 5518 5516 5514 5512 5510 5508 5505 5502 5498 5494 5490 5486 5481 5477 5474 5470 5467 5464 5462 5460 5458 5456 5454 5453 5451 5449 5448 5447 5446 5446 5446 5446 5447 5447 5448 5448 5449 5449 5450 5451 5450 5451 5453 5454 5454 5455 5455 5456 5457 5459 5463 5467 5470 5473 5477 5482 5487 5491 5495 5499 5503 5506 5509 5513 5516 5519 5522 5524 5526
5523 5524 5524 5525 5525 5525 5524 5524 5524 5525 5524 5523 5522 5521 5519 5517 5516 5514 5512 5510 5508 5506 5503 5500 5496 5492 5488 5484 5479 5475 5471 5468 5465 5462 5459 5457 5455 5454 5453 5452 5450 5449 5448 5446 5445 5445 5445 5445 5446 5446 5447 5448 5448 5449 5450 5451 5451 5451 5452 5454 5455 5456 5456 5457 5458 5460 5463 5467 5470 5473 5476 5481 5486 5490 5494 5498 5501 5504 5508 5511 5514 5516 5519 5521 5523
5522 5522 5522 5523 5523 5522 5522 5523 5523 5523 5523 5522 5521 5519 5518 5516 5514 5513 5511 5509 5506 5504 5501 5498 5495 5491 5487 5482 5478 5474 5470 5467 5464 5461 5458 5455 5453 5452 5451 5451 5449 5448 5447 5446 5444 5444 5443 5443 5444 5445 5446 5447 5448 5448 5449 5450 5451 5452 5452 5454 5456 5457 5458 5459 5461 5462 5465 5469 5473 5475 5478 5481 5485 5489 5493 5496 5500 5503 5506 5509 5512 5514 5516 5518 5520
5520 5520 5520 5520 5520 5521 5521 5521 5522 5522 5521 5521 5519 5518 5516 5515 5513 5511 5509 5507 5505 5502 5500 5497 5494 5490 5486 5482 5478 5474 5471 5467 5464 5461 5457 5455 5453 5451 5450 5450 5449 5448 5447 5445 5444 5444 5443 5442 5442 5443 5444 5445 5447 5448 5448 5449 5450 5451 5452 5454 5456 5457 5459 5461 5463 5465 5468 5471 5475 5478 5481 5483 5486 5489 5492 5495 5498 5501 5504 5507 5510 5512 5514 5516 5517
5517 5518 5518 5519 5519 5519 5519 5519 5520 5519 5519 5519 5518 5517 5515 5514 5512 5510 5508 5506 5503 5501 5499 5496 5494 5490 5486 5482 5478 5474 5471 5468 5464 5461 5458 5455 5453 5451 5449 5449 5448 5448 5447 5446 5444 5444 5443 5442 5442 5442 5443 5445 5446 5447 5447 5449 5450 5451 5452 5453 5455 5457 5460 5462 5464 5466 5469 5472 5475 5479 5482 5485 5487 5489 5491 5493 5496 5499 5502 5505 5508 5510 5512 5513 5514
5515 5516 5516 5517 5517 5517 5517 5517 5517 5517 5517 5517 5516 5515 5514 5513 5511 5509 5507 5505 5503 5500 5498 5496 5493 5490 5486 5482 5478 5475 5471 5468 5465 5461 5458 5456 5453 5451 5449 5448 5447 5447 5446 5446 5445 5444 5443 5442 5442 5442 5443 5445 5446 5446 5447 5448 5449 5450 5451 5453 5455 5457 5459 5462 5465 5467 5469 5471 5474 5477 5480 5483 5485 5487 5490 5492 5495 5498 5500 5503 5505 5507 5509 5510 5512
5514 5514 5514 5515 5515 5515 5515 5515 5515 5515 5515 5515 5514 5513 5512 5511 5510 5508 5507 5505 5502 5500 5497 5495 5492 5490 5486 5483 5479 5476 5472 5468 5465 5463 5460 5457 5454 5451 5449 5447 5447 5446 5445 5445 5445 5444 5443 5442 5443 5443 5444 5445 5445 5446 5447 5447 5448 5449 5451 5452 5454 5456 5458 5461 5464 5466 5469 5471 5473 5476 5478 5481 5483 5486 5489 5491 5494 5496 5498 5501 5503 5505 5507 5508 5510
5512 5512 5512 5512 5513 5513 5513 5513 5513 5513 5513 5512 5512 5511 5510 5509 5508 5506 5505 5503 5502 5499 5496 5494 5491 5489 5486 5483 5480 5477 5473 5469 5466 5463 5461 5458 5455 5452 5450 5448 5446 5446 5445 5445 5444 5444 5443 5443 5443 5444 5445 5445 5445 5446 5446 5447 5448 5449 5451 5452 5454 5456 5458 5460 5462 5465 5468 5470 5472 5475 5477 5480 5483 5485 5488 5490 5492 5494 5496 5498 5500 5503 5505 5507 5509
5510 5510 5510 5510 5511 5511 5511 5511 5511 5511 5511 5510 5510 5509 5508 5507 5506 5504 5503 5502 5500 5499 5496 5493 5491 5489 5486 5483 5480 5478 5475 5471 5467 5464 5462 5459 5456 5454 5451 5449 5447 5446 5445 5444 5443 5443 5442 5442 5443 5444 5445 5445 5446 5446 5447 5448 5449 5450 5451 5452 5453 5455 5457 5459 5461 5464 5466 5469 5471 5474 5476 5479 5481 5483 5485 5488 5489 5492 5494 5496 5498 5501 5503 5505 5508
5508 5508 5508 5508 5509 5509 5509 5509 5509 5509 5509 5508 5508 5507 5506 5505 5504 5502 5501 5500 5499 5498 5496 5493 5491 5489 5486 5484 5481 5478 5476 5473 5469 5466 5463 5460 5458 5455 5453 5451 5449 5447 5445 5444 5443 5442 5442 5442 5442 5443 5444 5445 5446 5446 5447 5448 5449 5450 5451 5452 5453 5455 5457 5458 5461 5463 5465 5467 5470 5472 5475 5477 5479 5481 5483 5485 5487 5490 5492 5494 5497 5499 5501 5504 5506
5505 5505 5506 5506 5506 5506 5507 5507 5507 5507 5507 5507 5506 5505 5504 5503 5502 5501 5499 5498 5497 5496 5495 5493 5491 5489 5486 5484 5481 5478 5476 5474 5471 5467 5464 5461 5459 5457 5454 5452 5450 5448 5446 5445 5444 5443 5442 5441 5441 5442 5443 5444 5445 5446 5447 5448 5449 5450 5451 5452 5453 5455 5457 5459 5461 5463 5465 5467 5469 5471 5473 5475 5477 5480 5482 5483 5485 5488 5490 5493 5496 5499 5501 5503 5506